Morgantown, WV

9:24 AM EST on February 12, 2016 (GMT -0500)
Morgantown Municipal-Hart

Weather History for KMGW - September, 2013

Change the Weather History Date:

Tuesday, September 17, 2013

  Actual Average Record
Temperature  
Mean Temperature 61 °F 65 °F  
Max Temperature 73 °F 75 °F 93 °F (1955)
Min Temperature 48 °F 54 °F 37 °F (1984)
Degree Days  
Heating Degree Days 4 3  
Month to date heating degree days 30 26  
Since 1 July heating degree days 39 37  
Cooling Degree Days 0 3  
Month to date cooling degree days 75 69  
Year to date cooling degree days 861 778  
Growing Degree Days 10 (Base 50)    
Moisture  
Dew Point 48 °F    
Average Humidity 68    
Maximum Humidity 100    
Minimum Humidity 35    
Precipitation  
Precipitation 0.00 in 0.11 in 1.59 in (2004)
Month to date precipitation 0.73 1.80  
Year to date precipitation 29.92 31.27  
Sea Level Pressure  
Sea Level Pressure 30.34 in    
Wind  
Wind Speed 3 mph (NE)    
Max Wind Speed 10 mph    
Max Gust Speed 15 mph    
Visibility 6 miles    
Events Fog    
T = Trace of Precipitation, MM = Missing Value Source: NWS Daily Summary

Daily Weather History Graph

Daily Weather History Graph

Search for Another Location

Airport or City:

Trip Planner

Search our weather history database for the weather conditions in past years. The results will help you decide how hot, cold, wet, or windy it might be!

Date:

Astronomy

Sep. 17, 2013 Rise Set
Actual Time 7:02 AM EDT 7:24 PM EDT
Civil Twilight 6:35 AM EDT 7:51 PM EDT
Nautical Twilight 6:04 AM EDT 8:23 PM EDT
Astronomical Twilight 5:31 AM EDT 8:55 PM EDT
Moon 6:10 PM EDT (9/17) 4:55 AM EDT (9/17)
Length of Visible Light 13h 15m
Length of Day
12h 21m
Waxing Gibbous, 96% of the Moon is Illuminated
Sep 17
Waxing Gibbous
Sep 19
Full
Sep 26
Last Quarter
Oct 4
New
Oct 11
First Quarter

Hourly Weather History & Observations

Time (EDT) Temp. Dew Point Humidity Pressure Visibility Wind Dir Wind Speed Gust Speed Precip Events Conditions
12:53 AM 54.0 °F 50.0 °F 86% 30.32 in 10.0 mi NNE 5.8 mph - N/A   Clear
1:53 AM 53.1 °F 48.9 °F 86% 30.33 in 10.0 mi Calm Calm - N/A   Clear
2:53 AM 51.1 °F 48.9 °F 92% 30.33 in 10.0 mi Calm Calm - N/A   Clear
3:53 AM 50.0 °F 48.9 °F 96% 30.34 in 10.0 mi Calm Calm - N/A   Clear
4:12 AM 50.0 °F 48.2 °F 94% 30.34 in 9.0 mi North 3.5 mph - N/A   Scattered Clouds
4:16 AM 50.0 °F 48.2 °F 94% 30.34 in 1.5 mi North 3.5 mph - N/A   Scattered Clouds
4:23 AM 48.2 °F 48.2 °F 100% 30.34 in 0.2 mi North 3.5 mph - N/A Fog Fog
4:51 AM 48.2 °F 48.2 °F 100% 30.34 in 1.0 mi Calm Calm - N/A   Mist
4:52 AM 48.9 °F 48.9 °F 100% 30.33 in 1.5 mi Calm Calm - N/A   Mostly Cloudy
4:54 AM 50.0 °F 48.2 °F 94% 30.34 in 3.0 mi Calm Calm - N/A   Mostly Cloudy
5:03 AM 48.2 °F 48.2 °F 100% 30.33 in 10.0 mi NE 3.5 mph - N/A   Scattered Clouds
5:53 AM 48.9 °F 48.0 °F 97% 30.34 in 8.0 mi Calm Calm - N/A   Partly Cloudy
6:40 AM 48.2 °F 46.4 °F 93% 30.36 in 1.8 mi Calm Calm - N/A   Scattered Clouds
6:50 AM 48.2 °F 46.4 °F 93% 30.37 in 1.2 mi Calm Calm - N/A   Mostly Cloudy
6:53 AM 48.0 °F 46.9 °F 96% 30.37 in 1.0 mi Calm Calm - N/A   Mostly Cloudy
7:04 AM 48.2 °F 48.2 °F 100% 30.38 in 0.5 mi Calm Calm - N/A Fog Fog
7:11 AM 48.2 °F 48.2 °F 100% 30.38 in 0.2 mi Calm Calm - N/A Fog Fog
7:37 AM 48.2 °F 48.2 °F 100% 30.38 in 0.2 mi North 3.5 mph - N/A Fog Fog
7:53 AM 48.9 °F 48.9 °F 100% 30.38 in 0.2 mi North 4.6 mph - N/A Fog Fog
8:53 AM 50.0 °F 50.0 °F 100% 30.39 in 0.2 mi Calm Calm - N/A Fog Fog
9:29 AM 51.8 °F 51.8 °F 100% 30.39 in 0.5 mi Calm Calm - N/A Fog Fog
9:53 AM 53.1 °F 52.0 °F 96% 30.40 in 1.5 mi Calm Calm - N/A   Overcast
9:58 AM 53.6 °F 51.8 °F 94% 30.39 in 3.0 mi Calm Calm - N/A   Overcast
10:28 AM 53.6 °F 51.8 °F 94% 30.39 in 10.0 mi WNW 3.5 mph - N/A   Scattered Clouds
10:53 AM 60.1 °F 53.1 °F 78% 30.39 in 10.0 mi Calm Calm - N/A   Partly Cloudy
11:53 AM 64.0 °F 54.0 °F 70% 30.37 in 10.0 mi NNE 3.5 mph - N/A   Clear
12:53 PM 68.0 °F 53.1 °F 59% 30.36 in 10.0 mi Variable 5.8 mph - N/A   Scattered Clouds
1:53 PM 70.0 °F 52.0 °F 53% 30.33 in 10.0 mi NNE 6.9 mph - N/A   Partly Cloudy
2:53 PM 72.0 °F 52.0 °F 49% 30.31 in 10.0 mi NE 4.6 mph - N/A   Clear
3:53 PM 72.0 °F 48.0 °F 43% 30.29 in 10.0 mi Variable 4.6 mph - N/A   Partly Cloudy
4:53 PM 71.1 °F 43.0 °F 36% 30.28 in 10.0 mi East 5.8 mph - N/A   Clear
5:53 PM 68.0 °F 44.1 °F 42% 30.28 in 10.0 mi NE 4.6 mph - N/A   Clear
6:53 PM 64.9 °F 46.0 °F 50% 30.28 in 10.0 mi ENE 3.5 mph - N/A   Clear
7:53 PM 61.0 °F 45.0 °F 56% 30.27 in 10.0 mi ENE 4.6 mph - N/A   Clear
8:53 PM 60.1 °F 44.1 °F 55% 30.28 in 10.0 mi Variable 5.8 mph - N/A   Clear
9:53 PM 57.9 °F 46.0 °F 65% 30.28 in 10.0 mi ESE 5.8 mph - N/A   Clear
10:53 PM 57.9 °F 44.1 °F 60% 30.28 in 10.0 mi ESE 5.8 mph - N/A   Clear
11:53 PM 55.9 °F 43.0 °F 62% 30.27 in 10.0 mi SE 3.5 mph - N/A   Clear